Location: Saratoga Springs
(43.0831°N, 73.7850°W)
Time: 07:08:02
(UTC-04:00)

Vanguard 2 Rocket - Pass Details

Date: 25 April 2024
Orbit: 556 x 3304 km, 32.9° (Epoch: 20 May)

Event Time Altitude Azimuth Distance (km) Brightness Sun altitude
Rises 23:16:02 0° 261° (W) 6,070 11.3 -29.1°
Reaches altitude 10° 23:19:36 10° 258° (WSW) 5,349 10.9 -29.4°
Maximum altitude 23:36:35 61° 184° (S) 3,541 9.4 -30.6°
Drops below altitude 10° 23:55:55 10° 110° (ESE) 5,989 10.7 -31.8°
Sets 00:00:13 0° 108° (ESE) 6,800 11.1 -32.0°
